TimeCDT,TemperatureF,Dew PointF,Humidity,Sea Level PressureIn,VisibilityMPH,Wind Direction,Wind SpeedMPH,Gust SpeedMPH,PrecipitationIn,Events,Conditions,WindDirDegrees,DateUTC
12:13 AM,62.6,59.0,88,29.99,10.0,Calm,Calm,-,N/A,,Overcast,0,2013-06-20 05:13:00
12:32 AM,62.6,59.0,88,30.00,10.0,NNE,3.5,-,N/A,,Mostly Cloudy,30,2013-06-20 05:32:00
12:53 AM,62.6,59.0,88,30.00,10.0,Calm,Calm,-,N/A,,Mostly Cloudy,0,2013-06-20 05:53:00
1:13 AM,62.6,59.0,88,30.00,10.0,ESE,4.6,-,N/A,,Overcast,120,2013-06-20 06:13:00
1:33 AM,62.6,60.8,94,30.01,10.0,Calm,Calm,-,N/A,,Overcast,0,2013-06-20 06:33:00
1:53 AM,62.6,59.0,88,30.01,10.0,Calm,Calm,-,0.01,Rain,Light Rain,0,2013-06-20 06:53:00
2:13 AM,62.6,59.0,88,30.01,10.0,East,4.6,-,0.01,Rain,Light Rain,90,2013-06-20 07:13:00
2:33 AM,60.8,59.0,94,30.02,10.0,North,3.5,-,0.01,Rain-Thunderstorm,Light Thunderstorms and Rain,10,2013-06-20 07:33:00
2:53 AM,60.8,59.0,94,30.01,10.0,Calm,Calm,-,0.01,Rain,Light Rain,0,2013-06-20 07:53:00
3:13 AM,60.8,59.0,94,30.00,10.0,SE,5.8,-,N/A,,Scattered Clouds,130,2013-06-20 08:13:00
3:33 AM,60.8,59.0,94,30.01,10.0,SSE,3.5,-,N/A,,Scattered Clouds,160,2013-06-20 08:33:00
3:53 AM,60.8,57.2,88,30.02,10.0,North,3.5,-,N/A,,Mostly Cloudy,10,2013-06-20 08:53:00
4:13 AM,60.8,59.0,94,30.01,10.0,Calm,Calm,-,N/A,,Mostly Cloudy,0,2013-06-20 09:13:00
4:33 AM,60.8,57.2,88,30.01,10.0,ESE,4.6,-,N/A,,Scattered Clouds,120,2013-06-20 09:33:00
4:53 AM,60.8,57.2,88,30.01,10.0,SE,3.5,-,N/A,,Scattered Clouds,140,2013-06-20 09:53:00
5:13 AM,60.8,57.2,88,30.01,10.0,Calm,Calm,-,N/A,,Scattered Clouds,0,2013-06-20 10:13:00
5:33 AM,60.8,59.0,94,30.01,10.0,ESE,5.8,-,N/A,,Scattered Clouds,110,2013-06-20 10:33:00
5:53 AM,60.8,57.2,88,30.01,10.0,ESE,4.6,-,N/A,,Mostly Cloudy,120,2013-06-20 10:53:00
6:13 AM,60.8,57.2,88,30.01,10.0,SE,4.6,-,N/A,,Scattered Clouds,130,2013-06-20 11:13:00
6:33 AM,60.8,57.2,88,30.02,10.0,Calm,Calm,-,N/A,,Mostly Cloudy,0,2013-06-20 11:33:00
6:53 AM,60.8,57.2,88,30.02,10.0,Calm,Calm,-,N/A,,Scattered Clouds,0,2013-06-20 11:53:00
7:13 AM,62.6,59.0,88,30.01,10.0,NE,3.5,-,N/A,,Clear,50,2013-06-20 12:13:00
7:33 AM,62.6,59.0,88,30.02,10.0,ESE,5.8,-,N/A,,Clear,120,2013-06-20 12:33:00
7:53 AM,64.4,59.0,83,30.02,10.0,SE,5.8,-,N/A,,Clear,130,2013-06-20 12:53:00
8:12 AM,64.4,59.0,83,30.03,10.0,SSE,6.9,-,N/A,,Clear,150,2013-06-20 13:12:00
8:33 AM,66.2,60.8,83,30.02,10.0,SSE,8.1,-,N/A,,Clear,150,2013-06-20 13:33:00
8:53 AM,68.0,57.2,68,30.02,10.0,SSE,9.2,-,N/A,Thunderstorm,Clear,160,2013-06-20 13:53:00
9:12 AM,69.8,59.0,68,30.04,10.0,South,8.1,-,N/A,,Clear,170,2013-06-20 14:12:00
9:32 AM,69.8,57.2,64,30.03,10.0,SSE,10.4,-,N/A,,Clear,160,2013-06-20 14:32:00
9:53 AM,69.8,59.0,68,30.03,10.0,SSE,8.1,-,N/A,,Mostly Cloudy,160,2013-06-20 14:53:00
10:13 AM,69.8,57.2,64,30.03,10.0,South,9.2,-,N/A,,Mostly Cloudy,170,2013-06-20 15:13:00
10:32 AM,69.8,59.0,68,30.04,10.0,SSW,8.1,-,N/A,,Mostly Cloudy,200,2013-06-20 15:32:00
10:53 AM,66.2,59.0,78,30.05,10.0,South,10.4,16.1,N/A,,Scattered Clouds,170,2013-06-20 15:53:00
11:13 AM,66.2,59.0,78,30.06,10.0,SSE,9.2,-,N/A,,Clear,160,2013-06-20 16:13:00
11:32 AM,66.2,59.0,78,30.08,-9999.0,South,4.6,-,N/A,,Scattered Clouds,180,2013-06-20 16:32:00
11:53 AM,64.4,60.8,88,30.09,10.0,SSW,6.9,-,N/A,Rain,Light Rain,200,2013-06-20 16:53:00
12:13 PM,64.4,60.8,88,30.08,7.0,SSE,4.6,-,0.01,Rain,Rain,150,2013-06-20 17:13:00
12:32 PM,64.4,60.8,88,30.07,10.0,South,3.5,-,0.02,Rain,Light Rain,180,2013-06-20 17:32:00
12:53 PM,64.4,60.8,88,30.06,10.0,ESE,4.6,-,0.03,Rain,Light Rain,110,2013-06-20 17:53:00
1:13 PM,64.4,60.8,88,30.06,10.0,SSE,4.6,-,0.01,Rain,Light Rain,150,2013-06-20 18:13:00
1:33 PM,62.6,60.8,94,30.06,10.0,SSE,4.6,-,N/A,Rain,Light Rain,160,2013-06-20 18:33:00
1:53 PM,64.4,60.8,88,30.04,10.0,East,5.8,-,N/A,Rain,Light Rain,100,2013-06-20 18:53:00
2:12 PM,64.4,60.8,88,30.04,10.0,East,5.8,-,N/A,Rain,Light Rain,100,2013-06-20 19:12:00
2:33 PM,66.2,62.6,88,30.03,10.0,SE,8.1,-,N/A,Rain,Light Rain,130,2013-06-20 19:33:00
2:53 PM,66.2,60.8,83,30.04,10.0,SSE,6.9,-,N/A,,Scattered Clouds,150,2013-06-20 19:53:00
3:13 PM,64.4,62.6,94,30.04,10.0,SSE,9.2,-,N/A,Rain,Light Rain,150,2013-06-20 20:13:00
3:33 PM,64.4,62.6,94,30.02,10.0,East,8.1,-,N/A,Rain,Light Rain,100,2013-06-20 20:33:00
3:53 PM,66.2,62.6,88,30.02,10.0,ESE,8.1,-,N/A,,Mostly Cloudy,120,2013-06-20 20:53:00
4:13 PM,66.2,62.6,88,30.02,10.0,SSE,9.2,-,N/A,Rain,Light Rain,150,2013-06-20 21:13:00
4:33 PM,64.4,62.6,94,30.05,-9999.0,SSW,10.4,16.1,N/A,,Unknown,210,2013-06-20 21:33:00
4:53 PM,64.4,60.8,88,30.04,-9999.0,SSE,6.9,-,0.03,,Unknown,160,2013-06-20 21:53:00
5:13 PM,64.4,60.8,88,30.04,-9999.0,SSE,9.2,-,N/A,,Unknown,150,2013-06-20 22:13:00
5:33 PM,62.6,60.8,94,30.05,2.5,SSE,10.4,-,N/A,,Mist,160,2013-06-20 22:33:00
5:53 PM,62.6,60.8,94,30.04,10.0,SSE,9.2,-,N/A,Rain,Light Rain,150,2013-06-20 22:53:00
6:12 PM,62.6,59.0,88,30.04,-9999.0,SSE,5.8,-,N/A,,Overcast,160,2013-06-20 23:12:00
6:33 PM,62.6,59.0,88,30.05,-9999.0,South,5.8,-,N/A,,Overcast,170,2013-06-20 23:33:00
6:52 PM,62.6,60.8,94,30.04,2.5,SE,4.6,-,0.01,Rain,Light Rain,140,2013-06-20 23:52:00
7:13 PM,62.6,59.0,88,30.03,10.0,SE,6.9,-,N/A,,Light Drizzle,140,2013-06-21 00:13:00
7:33 PM,62.6,59.0,88,30.03,-9999.0,South,3.5,-,N/A,,Overcast,170,2013-06-21 00:33:00
7:53 PM,62.6,59.0,88,30.04,-9999.0,Calm,Calm,-,N/A,,Overcast,0,2013-06-21 00:53:00
8:13 PM,62.6,59.0,88,30.05,-9999.0,Calm,Calm,-,N/A,,Overcast,0,2013-06-21 01:13:00
8:33 PM,62.6,59.0,88,30.04,10.0,SSE,6.9,-,N/A,Rain,Light Rain,150,2013-06-21 01:33:00
8:52 PM,62.6,57.2,82,30.03,10.0,SSE,4.6,-,N/A,,Scattered Clouds,150,2013-06-21 01:52:00
9:13 PM,60.8,57.2,88,30.03,10.0,ESE,5.8,-,N/A,,Clear,120,2013-06-21 02:13:00
9:33 PM,60.8,57.2,88,30.04,10.0,Calm,Calm,-,N/A,,Scattered Clouds,0,2013-06-21 02:33:00
9:52 PM,60.8,57.2,88,30.04,10.0,Calm,Calm,-,N/A,,Scattered Clouds,0,2013-06-21 02:52:00
10:13 PM,60.8,57.2,88,30.04,10.0,ESE,3.5,-,N/A,,Clear,110,2013-06-21 03:13:00
10:33 PM,60.8,57.2,88,30.05,10.0,SE,3.5,-,N/A,,Clear,130,2013-06-21 03:33:00
10:52 PM,60.8,57.2,88,30.04,10.0,East,5.8,-,N/A,,Clear,90,2013-06-21 03:52:00
11:13 PM,59.0,57.2,94,30.02,10.0,East,8.1,-,N/A,,Clear,100,2013-06-21 04:13:00
11:33 PM,-9999,-9999,N/A,-9999,-9999.0,North,-9999.0,-,N/A,,Unknown,0,2013-06-21 04:33:00
11:53 PM,59.0,57.2,94,30.01,-9999.0,East,6.9,-,N/A,,Overcast,100,2013-06-21 04:53:00